<?xml version="1.0"?>
<gpx xmlns="http://www.topografix.com/GPX/1/1" xmlns:xsi="http://www.w3.org/2001/XMLSchema-instance" version="1.1" creator="GPX RubyGem 1.0.0 -- http://dougfales.github.io/gpx/" xsi:schemaLocation="http://www.topografix.com/GPX/1/1 http://www.topografix.com/GPX/1/1/gpx.xsd">
  <metadata>
    <name/>
    <time>2026-05-10T23:36:22+00:00</time>
    <bound minlat="90.0" minlon="180.0" maxlat="-90.0" maxlon="-180.0"/>
  </metadata>
  <trk>
    <name/>
    <trkseg>
      <trkpt lat="50.85375" lon="14.752451">
        <time>1970-01-01T00:00:00+00:00</time>
        <ele>378.0</ele>
      </trkpt>
      <trkpt lat="50.853732" lon="14.752436">
        <time>1970-01-01T00:00:00+00:00</time>
        <ele>377.0</ele>
      </trkpt>
      <trkpt lat="50.853648" lon="14.752328">
        <time>1970-01-01T00:00:00+00:00</time>
        <ele>377.0</ele>
      </trkpt>
      <trkpt lat="50.853747" lon="14.752578">
        <time>1970-01-01T00:00:00+00:00</time>
        <ele>380.0</ele>
      </trkpt>
      <trkpt lat="50.854269" lon="14.753204">
        <time>1970-01-01T00:00:00+00:00</time>
        <ele>379.0</ele>
      </trkpt>
      <trkpt lat="50.854339" lon="14.753321">
        <time>1970-01-01T00:00:00+00:00</time>
        <ele>379.0</ele>
      </trkpt>
      <trkpt lat="50.854381" lon="14.753415">
        <time>1970-01-01T00:00:00+00:00</time>
        <ele>380.0</ele>
      </trkpt>
      <trkpt lat="50.854427" lon="14.753658">
        <time>1970-01-01T00:00:00+00:00</time>
        <ele>383.0</ele>
      </trkpt>
      <trkpt lat="50.854412" lon="14.754035">
        <time>1970-01-01T00:00:00+00:00</time>
        <ele>391.0</ele>
      </trkpt>
      <trkpt lat="50.854376" lon="14.75425">
        <time>1970-01-01T00:00:00+00:00</time>
        <ele>398.0</ele>
      </trkpt>
      <trkpt lat="50.85415" lon="14.755019">
        <time>1970-01-01T00:00:00+00:00</time>
        <ele>416.0</ele>
      </trkpt>
      <trkpt lat="50.85408" lon="14.755233">
        <time>1970-01-01T00:00:00+00:00</time>
        <ele>418.0</ele>
      </trkpt>
      <trkpt lat="50.853475" lon="14.756131">
        <time>1970-01-01T00:00:00+00:00</time>
        <ele>435.0</ele>
      </trkpt>
      <trkpt lat="50.853311" lon="14.756322">
        <time>1970-01-01T00:00:00+00:00</time>
        <ele>442.0</ele>
      </trkpt>
      <trkpt lat="50.853082" lon="14.75679">
        <time>1970-01-01T00:00:00+00:00</time>
        <ele>449.0</ele>
      </trkpt>
      <trkpt lat="50.852818" lon="14.75681">
        <time>1970-01-01T00:00:00+00:00</time>
        <ele>457.0</ele>
      </trkpt>
      <trkpt lat="50.852595" lon="14.756707">
        <time>1970-01-01T00:00:00+00:00</time>
        <ele>465.0</ele>
      </trkpt>
      <trkpt lat="50.852381" lon="14.756521">
        <time>1970-01-01T00:00:00+00:00</time>
        <ele>471.0</ele>
      </trkpt>
      <trkpt lat="50.852069" lon="14.756097">
        <time>1970-01-01T00:00:00+00:00</time>
        <ele>478.0</ele>
      </trkpt>
      <trkpt lat="50.852041" lon="14.755747">
        <time>1970-01-01T00:00:00+00:00</time>
        <ele>482.0</ele>
      </trkpt>
      <trkpt lat="50.851992" lon="14.755495">
        <time>1970-01-01T00:00:00+00:00</time>
        <ele>481.0</ele>
      </trkpt>
      <trkpt lat="50.851888" lon="14.75563">
        <time>1970-01-01T00:00:00+00:00</time>
        <ele>481.0</ele>
      </trkpt>
      <trkpt lat="50.851407" lon="14.756079">
        <time>1970-01-01T00:00:00+00:00</time>
        <ele>491.0</ele>
      </trkpt>
      <trkpt lat="50.851258" lon="14.756246">
        <time>1970-01-01T00:00:00+00:00</time>
        <ele>495.0</ele>
      </trkpt>
      <trkpt lat="50.851173" lon="14.756344">
        <time>1970-01-01T00:00:00+00:00</time>
        <ele>497.0</ele>
      </trkpt>
      <trkpt lat="50.851071" lon="14.756398">
        <time>1970-01-01T00:00:00+00:00</time>
        <ele>499.0</ele>
      </trkpt>
      <trkpt lat="50.850992" lon="14.756337">
        <time>1970-01-01T00:00:00+00:00</time>
        <ele>501.0</ele>
      </trkpt>
      <trkpt lat="50.850887" lon="14.756167">
        <time>1970-01-01T00:00:00+00:00</time>
        <ele>501.0</ele>
      </trkpt>
      <trkpt lat="50.85086" lon="14.755692">
        <time>1970-01-01T00:00:00+00:00</time>
        <ele>495.0</ele>
      </trkpt>
      <trkpt lat="50.85086" lon="14.755692">
        <time>1970-01-01T00:00:00+00:00</time>
        <ele>495.0</ele>
      </trkpt>
      <trkpt lat="50.850887" lon="14.756167">
        <time>1970-01-01T00:00:00+00:00</time>
        <ele>501.0</ele>
      </trkpt>
      <trkpt lat="50.850992" lon="14.756337">
        <time>1970-01-01T00:00:00+00:00</time>
        <ele>501.0</ele>
      </trkpt>
      <trkpt lat="50.851071" lon="14.756398">
        <time>1970-01-01T00:00:00+00:00</time>
        <ele>499.0</ele>
      </trkpt>
      <trkpt lat="50.851173" lon="14.756344">
        <time>1970-01-01T00:00:00+00:00</time>
        <ele>497.0</ele>
      </trkpt>
      <trkpt lat="50.851258" lon="14.756246">
        <time>1970-01-01T00:00:00+00:00</time>
        <ele>495.0</ele>
      </trkpt>
      <trkpt lat="50.851407" lon="14.756079">
        <time>1970-01-01T00:00:00+00:00</time>
        <ele>491.0</ele>
      </trkpt>
      <trkpt lat="50.851888" lon="14.75563">
        <time>1970-01-01T00:00:00+00:00</time>
        <ele>481.0</ele>
      </trkpt>
      <trkpt lat="50.851992" lon="14.755495">
        <time>1970-01-01T00:00:00+00:00</time>
        <ele>481.0</ele>
      </trkpt>
      <trkpt lat="50.852041" lon="14.755747">
        <time>1970-01-01T00:00:00+00:00</time>
        <ele>482.0</ele>
      </trkpt>
      <trkpt lat="50.852069" lon="14.756097">
        <time>1970-01-01T00:00:00+00:00</time>
        <ele>478.0</ele>
      </trkpt>
      <trkpt lat="50.852381" lon="14.756521">
        <time>1970-01-01T00:00:00+00:00</time>
        <ele>471.0</ele>
      </trkpt>
      <trkpt lat="50.852595" lon="14.756707">
        <time>1970-01-01T00:00:00+00:00</time>
        <ele>465.0</ele>
      </trkpt>
      <trkpt lat="50.852818" lon="14.75681">
        <time>1970-01-01T00:00:00+00:00</time>
        <ele>457.0</ele>
      </trkpt>
      <trkpt lat="50.853082" lon="14.75679">
        <time>1970-01-01T00:00:00+00:00</time>
        <ele>449.0</ele>
      </trkpt>
      <trkpt lat="50.853311" lon="14.756322">
        <time>1970-01-01T00:00:00+00:00</time>
        <ele>442.0</ele>
      </trkpt>
      <trkpt lat="50.853475" lon="14.756131">
        <time>1970-01-01T00:00:00+00:00</time>
        <ele>435.0</ele>
      </trkpt>
      <trkpt lat="50.85408" lon="14.755233">
        <time>1970-01-01T00:00:00+00:00</time>
        <ele>418.0</ele>
      </trkpt>
      <trkpt lat="50.85415" lon="14.755019">
        <time>1970-01-01T00:00:00+00:00</time>
        <ele>416.0</ele>
      </trkpt>
      <trkpt lat="50.854376" lon="14.75425">
        <time>1970-01-01T00:00:00+00:00</time>
        <ele>398.0</ele>
      </trkpt>
      <trkpt lat="50.854412" lon="14.754035">
        <time>1970-01-01T00:00:00+00:00</time>
        <ele>391.0</ele>
      </trkpt>
      <trkpt lat="50.854427" lon="14.753658">
        <time>1970-01-01T00:00:00+00:00</time>
        <ele>383.0</ele>
      </trkpt>
      <trkpt lat="50.854381" lon="14.753415">
        <time>1970-01-01T00:00:00+00:00</time>
        <ele>380.0</ele>
      </trkpt>
      <trkpt lat="50.854339" lon="14.753321">
        <time>1970-01-01T00:00:00+00:00</time>
        <ele>379.0</ele>
      </trkpt>
      <trkpt lat="50.854269" lon="14.753204">
        <time>1970-01-01T00:00:00+00:00</time>
        <ele>379.0</ele>
      </trkpt>
      <trkpt lat="50.853747" lon="14.752578">
        <time>1970-01-01T00:00:00+00:00</time>
        <ele>380.0</ele>
      </trkpt>
      <trkpt lat="50.853648" lon="14.752328">
        <time>1970-01-01T00:00:00+00:00</time>
        <ele>377.0</ele>
      </trkpt>
      <trkpt lat="50.853732" lon="14.752436">
        <time>1970-01-01T00:00:00+00:00</time>
        <ele>377.0</ele>
      </trkpt>
      <trkpt lat="50.85375" lon="14.752451">
        <time>1970-01-01T00:00:00+00:00</time>
        <ele>378.0</ele>
      </trkpt>
    </trkseg>
  </trk>
</gpx>
